Back to catalog

STARLINK-31597

AliveCommunicationsVLEO
NORAD 59464·PAYLOAD·🇺🇸 United States

Launched Apr 10, 2024 from Cape Canaveral Space Force Station

Loading…

Next Passes (next 24 hours)

TLE

FreshSource: CelesTrak SupGP

Epoch: Sep 14, 2026, 21:04 UTC

1 59464C 24068K   26257.87826389  .00071014  00000+0  25729-2 0  2577
2 59464  43.0041  46.1076 0001469 285.0905 172.0910 15.27534018    12

Track STARLINK-31597 in real time with AllMySat

Download on the App Store